Terminal Aerodrome Forecast
Issued by NWS Sterling, VA

Current Version | Previous Version | Text Only | Print | Product List | Glossary On
Versions: 1 2 3 4 5 6 7 8 9 10 11 12 13 14 15 16 17 18 19
000
FTUS41 KLWX 251132
TAFMRB
TAF
KMRB 251132Z 2512/2612 VRB03KT P6SM SCT200
     FM251300 20008KT P6SM SCT200
     FM251500 20010G18KT P6SM FEW050 SCT200
     FM260000 18008KT P6SM SCT200
     FM260400 VRB03KT P6SM BKN100=

USA.gov is the U.S. government's official web portal to all federal, state and local government web resources and services.